Regional Weather Roundup
Issued by NWS

Home | Current Version | Previous Version | Text Only | Print | Product List | Glossary Off
Versions: 1 2 3 4 5 6 7 8 9 10 11 12 13 14 15 16 17 18 19 20 21 22 23 24 25 26 27 28 29 30 31 32 33 34 35 36 37 38 39 40 41 42 43 44 45 46 47 48 49 50

372
ASUS45 KABQ 171901
RWRNM
NEW MEXICO REGIONAL WEATHER ROUNDUP
NATIONAL WEATHER SERVICE ALBUQUERQUE NM
100 PM MDT THU AUG 17 2017

NOTE: "FAIR" MEANS FEW OR NO CLOUDS BELOW 12,000 FEET AGL WITH NO
       SIGNIFICANT WEATHER OR OBSTRUCTIONS TO VISION.

      THIS PRODUCT IS RELEASED AS TWO VERSIONS.  ONE VERSION NEAR
      THE TOP OF THE HOUR CONTAINING PRELIMINARY DATA FROM ALBUQUERQUE
      AND OTHER STATIONS.  A FINAL VERSION WITH ADDITIONAL DATA IS
      ISSUED ABOUT 10 MINUTES AFTER THE HOUR.

NMZ501-503-504-510>518-172000-
NORTHWEST PLATEAU/NORTHCENTRAL MOUNTAINS

CITY           SKY/WX    TMP DP  RH WIND       PRES   REMARKS
FARMINGTON     FAIR      82  31  15 CALM      30.22F
LOS ALAMOS     PTSUNNY   74  36  24 NE5       30.37S
SANTA FE       PTSUNNY   81  37  20 N5        30.28F
TAOS           CLOUDY    76  37  24 S8        30.37F
ANGEL FIRE     PTSUNNY   66  35  31 W10G17    30.45F

$$
NMZ402-403-502-505>509-172000-
WESTCENTRAL MOUNTAINS/SOUTHWEST MOUNTAINS

CITY           SKY/WX    TMP DP  RH WIND       PRES   REMARKS
GALLUP         FAIR      80  33  18 S6G17     30.31F
GRANTS         CLOUDY    80  32  17 CALM      30.32S
SILVER CITY    FAIR      85  44  24 SW8       30.25S

$$
NMZ407-409-411-412-172000-
SOUTHERN DESERTS

CITY           SKY/WX    TMP DP  RH WIND       PRES   REMARKS
DEMING         FAIR      90  42  18 S8        30.16F
LAS CRUCES     FAIR      91  37  14 W5        30.18S
HOLLOMAN AFB   FAIR      96  42  15 W6        30.15F
ALAMOGORDO     FAIR      91  43  18 W5        30.16S
T OR C         FAIR      89  36  15 S9        30.18F

$$
NMZ519>523-172000-
CENTRAL VALLEYS/CENTRAL HIGHLANDS

CITY           SKY/WX    TMP DP  RH WIND       PRES   REMARKS
ALBUQUERQUE    FAIR      85  36  17 SW7       30.23F
DOUBLE EAGLE   MOSUNNY   84  39  20 S8        30.27F
CLINES CORNERS PTSUNNY   79  37  22 VRB5G20   30.34F
BELEN          NOT AVBL
SOCORRO        FAIR      87  33  14 SW5       30.19F

$$
NMZ524>526-539-540-172000-
SOUTHCENTRAL MOUNTAINS

CITY           SKY/WX    TMP DP  RH WIND       PRES   REMARKS
RUIDOSO        FAIR      79  39  24 S5G20     30.36S

$$
NMZ527>531-172000-
NORTHEAST HIGHLANDS/NORTHEAST PLAINS

CITY           SKY/WX    TMP DP  RH WIND       PRES   REMARKS
LAS VEGAS      PTSUNNY   73  49  42 S8        30.33F
RATON          FAIR      72  54  53 S3        30.27F
CLAYTON        FAIR      80  62  54 S15       30.19F

$$
NMZ532>537-172000-
EASTCENTRAL PLAINS

CITY           SKY/WX    TMP DP  RH WIND       PRES   REMARKS
SANTA ROSA     FAIR      85  50  30 SW8       30.18F
TUCUMCARI      FAIR      91  60  35 S9G16     30.11F
CANNON AFB     FAIR      84  67  56 S7        30.19F
CLOVIS AIRPORT FAIR      82  69  64 SE13      30.18F

$$
NMZ028-029-538-172000-
SOUTHEAST PLAINS

CITY           SKY/WX    TMP DP  RH WIND       PRES   REMARKS
ROSWELL        FAIR      92  57  30 E7        30.10F
ARTESIA        FAIR      93  55  27 VRB6      30.10F
CARLSBAD       FAIR      90  66  45 CALM      30.08F
HOBBS          SUNNY     91  63  38 E10G16    30.12F


$$




USA.gov is the U.S. government's official web portal to all federal, state and local government web resources and services.